Location: Branche des Alpilles
(43.6087°N, 4.6976°E)
Time: 05:21:28
(UTC+00:00)

Cosmos 1943 Rocket - Pass Details

Date: 30 November 2020
Orbit: 811 x 845 km, 71.0° (Epoch: 27 January)

Event Time Altitude Azimuth Distance (km) Brightness Sun altitude
Rises 18:12:24 0° 327° (NNW) 3,359 5.6 -22.3°
Reaches altitude 10° 18:14:58 10° 320° (NW) 2,427 5.0 -22.8°
Maximum altitude 18:20:03 38° 254° (WSW) 1,249 3.6 -23.7°
Drops below altitude 10° 18:25:08 10° 188° (S) 2,433 4.8 -24.6°
Sets 18:27:43 0° 180° (S) 3,368 5.4 -25.0°
